Погода в Курдамире

Погода в Курдамире : погода сейчас, прогноз погоды и архив. Всё, что Вы хотите узнать о погоде в Курдамире!

Поиск расширенной информации на нашем сайте:

Другие новости

Новости СМИ2

Главная страница сайта

Новости сайта

02.10.2013

Напоминаем, что на нашем новом сайте вы можете получить высокодетализированные прогнозы погоды по пунктам России, СНГ и мира (включающие важные для авиации метеовеличины, такие как направление и скорость ветра, видимость, явления погоды, количество и форма облачности, нижняя и верхняя граница облачности), а также ознакомиться с разнообразными материалами по авиационной метеорологии и подборкой полезных ссылок на эту тему.

Сайт Метеоцентр.Азия посвящён разработке технологий оптимизации авиаметеорологического обслуживания, включая проектирование и перспективное создание нескольких автоматизированных авиаметеорологических систем:
- система выпуска высокодетальных прогностических карт явлений погоды для нижнего воздушного пространства по России и ближнему зарубежью;
- система верификации прогнозов TAF (выпускаемых синоптиками официальных АМСГ РФ и ближнего зарубежья) и AUTOTAF (выпускаемых сайтом Метеоцентр.Азия) - выявление ошибок, онлайн-сопоставление с фактической погодой METAR, автоматическое внесение коррективов в прогнозы при резком отклонении фактической погоды от прогноза, подсчёт оправдываемости прогнозов по элементам и в целом;
- система обработки, анализа и отображения авиаметеорологической информации для применения провайдерами метеорологической информации.


Погода в Курдамире - сегодня

Время (UTC), дата Ветер
(°,м/с) 
Видим.   Явления Облачность Т
(°С)
Тd
(°С)
f(%) Тe
(°С)
Pmin
(гПа)
dP
(гПа)
Po
(мм)
O2
(г/м3)
Тmin Tmax R s Состояние
почвы
12 24.05.17 320 (СЗ) 20000 м  {ливн. осадки}  9/8 600 м средняя 
[Sc|Ac trans]
+22.8 +16.2 66 +33  1011.2  -0.3  758  278           
21 24.05.17 180 (Ю) 20000 м  {ливн. осадки}  10/10 600 м 
[Sc]
+16.9 +12.7 76 +22  1014.5  1.6  761  286           
00 25.05.17 290 (З) 20000 м  {ливн. осадки}  10/10 600 м 
[Sc]
+15.2 +12.6 84 +21  1013.6  -0.9  760  288           
06 25.05.17 320 (СЗ) 20000 м    6/6 600 м 
[Cu med, cong]
+20.5 +13.7 65 +27  1015.9  0.8  762  283         
09 25.05.17 280 (З) 20000 м    8/8 600 м 
[Cu med, cong]
+24.1 +13.5 52 +30  1014.8  -1.1  761  279           
12 25.05.17 250 (З) 20000 м    4/4 600 м 
[Cu med, cong]
+27.2 +12.9 41 +32  1013.4  -1.4  760  276           
15 25.05.17 170 (Ю) 20000 м    8/0 верхняя 
[Ci ing]
+26.6 +12.4 41 +31  1013.2  -0.2  760  277           
21 25.05.17 130 (ЮВ) 20000 м    10/10 600 м 
[Sc]
+17.8 +11.4 66 +21  1017.4  1.1  763  286           
00 26.05.17 220 (ЮЗ) 20000 м    10/10 600 м 
[Sc]
+16.4 +11.6 73 +21  1017.2  -0.2  763  288           
03 26.05.17 290 (З) 20000 м    10/10 600 м 
[Sc]
+16.7 +11.3 70 +21  1017.7  0.5  763  288           
06 26.05.17 280 (З) 20000 м    9/8 600 м средняя 
[Sc|Ac trans]
+20.2 +12.4 61 +24  1017.8  0.1  763  284           
09 26.05.17 200 (Ю) 20000 м    9/8 600 м средняя 
[Sc|Ac trans]
+23 +12.7 52 +28  1016.5  -1.3  762  281           
12 26.05.17 100 (В) 20000 м    9/8 600 м средняя 
[Sc|Ac trans]
+24.5 +12.7 48 +29  1014.6  -1.9  761  279           
15 26.05.17 120 (ЮВ) 20000 м    6/6 600 м 
[Sc]
+25 +13.4 49 +31  1012.8  -1.8  759  278           
18 26.05.17 160 (Ю) 20000 м    6/6 600 м 
[Sc]
+20.5 +14.1 67 +27  1014  1.2  760  282    +25.3       
21 26.05.17 150 (ЮВ) 20000 м    9/8 600 м средняя 
[Sc|Ac trans]
+18.2 +14.2 77 +27  1014.8  0.8  761  284           
00 27.05.17 330 (СЗ) 20000 м    9/8 600 м средняя 
[Sc|Ac trans]
+17 +14.6 86 +26  1013.5  -1.3  760  285           
03 27.05.17 170 (Ю) 20000 м    8/0 верхняя 
[Ci ing]
+16.6 +14.3 86 +24  1013.2  -0.3  760  286           
06 27.05.17 110 (В) 20000 м    9/8 600 м средняя 
[Sc|Ac trans]
+20.6 +15.6 73 +30  1013.7  0.5  760  281           
09 27.05.17 240 (ЮЗ) 20000 м    9/8 600 м средняя 
[Sc|Ac trans]
+24.2 +16 60 +34  1011.8  -1.9  758  277           
12 27.05.17 070 (В) 20000 м    8/5 600 м верхняя 
[Cu med, cong|Ci ing]
+26.8 +14.9 48 +35  1009  -2.8  756  275           
15 27.05.17 090 (В) 20000 м    6/4 600 м средняя 
[Sc|Ac trans]
+26.9 +15.1 48 +36  1007.9  -1.1  756  274           
21 27.05.17 110 (В) 20000 м    ясно 
+19 +16 83 +31  1010.8  1.3  758  282           
03 28.05.17 140 (ЮВ) 20000 м    9/8 600 м средняя 
[Sc|Ac trans]
+18.6 +16.3 86 +31  1011.8  0.6  758  283           
09 28.05.17 250 (З) 20000 м    8/4 600 м средняя 
[Sc|Ac trans]
+25.4 +15.5 54 +35  1011.4  -0.9  758  276           
Время (UTC), дата Ветер
(°,м/с) 
Видим.   Явления Облачность Т
(°С)
Тd
(°С)
f(%) Тe
(°С)
Pmin
(гПа)
dP
(гПа)
Po
(мм)
O2
(г/м3)
Тmin Tmax R s Состояние
почвы

Для получения пояснительной информации подведите курсор к названию столбца.

ПОГОДА в Курдамире - архив

Всё, что Вы хотите узнать о погоде в Курдамире - удобно и подробно!

Выберите нужную дату (начиная с 1 января 2015* года) и нажмите кнопку "Найти".
Будут отображены архивные сводки погоды по пункту Курдамир, начиная с указанной даты.


Отображать данные в формате CSV (для использования в таблицах Excel)


Внимание! Наш архив погоды предназначен исключительно для личного некоммерческого использования в познавательных целях. Если Вам необходимы официальные справки о состоянии погоды (для производственных, юридических, коммерческих и т.п. целей), обращайтесь в органы Росгидромета.

*Примечание: данная дата относится к архиву по метеостанциям СССР (Россия, СНГ, Балтия).
Архив по метеостанциям Зарубежной Европы и Азии (кроме Китая) хранится 10 дней, по другим регионам земного шара (Китай, Африка, Америка, Австралия, Океания) - 1 день.

Курдамир - район местоположения метеостанции


Название, широта, долгота, высота метеостанции:
Курдамир 40.3°ш. 48.2°д. 4 м над ур. моря [Азербайджан]

Дополнительная информация

В oтличие oт бoльшинства пoгoдных сайтoв мы публикуем пoдрoбную метеoинфoрмацию в детальнoм прoфессиoнальнoм фoрмате.

Характеристики температуры и влажнoсти вoздуха измеряются на высoте 2 м в тени вдали oт зданий и деревьев.
Скoрoсть ветра измеряется на высoте 10 м (на урoвне рoста челoвека скoрoсть ветра ниже в 1.5-2 раза). Если метеoстанция нахoдится в гoрoде или в лесу, тo скoрoсть ветра занижена на 2-4 м/с пo сравнению с oткрытым местoм. Скoрoсть ветра над акватoриями крупных рек и oзёр, а также на вершинах хoлмoв на 2-5 м/с выше, чем в oбычных услoвиях.
Атмoсфернoе давление в разных тoчках местнoсти мoжет значительнo oтличаться oт давления на метеoстанции, в зависимoсти oт услoвий рельефа (при пoдъёме на 10 м давление пoнижается примернo на 1 мм рт.ст.).